THORAD AGENA D DEB, 18418

Orbit data source: Space-Track

THORAD AGENA D DEB, 18418 is space debris in SSO originally from a launch on Wed, 08 Apr 1970 UTC launched from the Air Force Western Test Range (AFWTR). Debris objects in space refer to the collection of defunct objects orbiting the Earth. Examples of debris include non-operational satellites, rocket bodies, and fragments generated from explosions, collisions, or faulty payload assembly.

Loading next visibility...
Identifier
18418, 1970-025PL
Orbit
SSO
Country
Flag of USUS
Related business
Manufacturer
Unknown
Mission
Spacecraft
Bus & Motor
Unknown
Mass
Unknown
Launch date (UTC)
1970-04-08 (56 years ago)
Launch vehicle
Unknown
Launch site
Air Force Western Test Range (AFWTR)
Object type
Payload
Rocket body
Debris
Shape & HBR
Unknown shape, 0.1 m
Radar Cross Section
Small (<0.1 m²)

Expand to show TLE details & history
Last TLE update: 1 day ago

TLE from 1 day ago
0 THORAD AGENA D DEB
1 18418U 70025PL  26036.03150200  .00001485  00000-0  14767-2 0  9999
2 18418 100.1809 198.8769 0002678 239.2538 248.8689 13.80069331772416
Epoch: 2026-02-05T00:45Z
TLE epoch observation values (Epoch: 2026-02-05T00:45:21.772Z)
Latitude
50.86882°
Longitude
-114.96873°
Altitude
972.406 km
Speed
7.37 km/s
True Right ascension
02h 06m 14s
True Declination
50° 42' 19"
Sunlit
Object was in daylight at epoch
Visualization orbit readout
Latitude
Unknown
Longitude
Unknown
Altitude
Unknown
Speed
Unknown
Apparent Right ascension
Unknown
Apparent Declination
Unknown
Sunlit
N/A
Visualization observer readout
Local Sidereal Time
12:44:11
Azimuth
Unknown
Elevation
Unknown
Doppler factor
Unknown
Orbital elements
Apogee altitude
962.893 km
Perigee altitude
958.962 km
Semi-major axis
7,339.065 km
Eccentricity
0.00027
Inclination
100.1809°
RAAN
198.8769°
Arg. of periapsis
239.2538°
True anomaly
248.84028°
Mean anomaly
248.8689°
Eccentric anomaly
248.85459°
Mean motion
3.45209 °/min
Orbital period
104.28 mins
BSTAR
0.0014767

Documentation

Showing up to 5 results
|